Milwaukee, WI

9:12 PM CST on November 16, 2019 (GMT -0600)
Gen Mitchell International

Weather History for KMKE - September, 2019

Change the Weather History Date:

Thursday, September 12, 2019

  Actual Average Record
Temperature  
Mean Temperature 66 °F 65 °F  
Max Temperature 72 °F 73 °F 92 °F (1948)
Min Temperature 60 °F 57 °F 40 °F (1975)
Degree Days  
Heating Degree Days 0 3  
Month to date heating degree days 8 23  
Since 1 July heating degree days 10 49  
Cooling Degree Days 1 3  
Month to date cooling degree days 43 44  
Year to date cooling degree days 649 609  
Growing Degree Days 16 (Base 50)    
Moisture  
Dew Point 63 °F    
Average Humidity 91    
Maximum Humidity 97    
Minimum Humidity 87    
Precipitation  
Precipitation 1.58 in 0.11 in 1.52 in (1978)
Month to date precipitation 4.16 1.24  
Year to date precipitation 32.57 25.42  
Snow  
Snow 0.00 in 0.00 in 0.00 in (2018)
Month to date snowfall 0.0 0.0  
Since 1 July snowfall 0.0 0.0  
Since 1 September snowfall 0.0 0.0  
Snow Depth 0.00 in    
Sea Level Pressure  
Sea Level Pressure 30.09 in    
Wind  
Wind Speed 9 mph ()    
Max Wind Speed 21 mph    
Max Gust Speed 33 mph    
Visibility 4.2 miles    
Events Fog , Rain , Thunderstorm    
T = Trace of Precipitation, MM = Missing Value Source: Averaged Metar Reports

Daily Weather History Graph

Daily Weather History Graph

Search for Another Location

Airport or City:

Astronomy

Sep. 12, 2019 Rise Set
Actual Time 6:27 AM CDT 7:07 PM CDT
Civil Twilight 5:59 AM CDT 7:35 PM CDT
Nautical Twilight 5:25 AM CDT 8:09 PM CDT
Astronomical Twilight 4:50 AM CDT 8:44 PM CDT
Moon 6:54 PM CDT (9/12) 4:43 AM CDT (9/12)
Length of Visible Light 13h 36m
Length of Day
12h 39m
Waxing Gibbous, 98% of the Moon is Illuminated
Sep 12
Waxing Gibbous
Sep 13
Full
Sep 21
Last Quarter
Sep 28
New
Oct 5
First Quarter

Hourly Weather History & Observations

Time (CDT) Temp. Dew Point Humidity Pressure Visibility Wind Dir Wind Speed Gust Speed Precip Events Conditions
12:52 AM 60.1 °F 57.9 °F 93% 30.09 in 1.0 mi North 9.2 mph - 0.00 in   Light Drizzle
1:52 AM 61.0 °F 59.0 °F 93% 30.08 in 1.0 mi North 10.4 mph - 0.01 in   Light Drizzle
2:52 AM 62.1 °F 60.1 °F 93% 30.09 in 2.0 mi North 6.9 mph - 0.00 in Rain Light Rain
3:52 AM 63.0 °F 60.1 °F 90% 30.10 in 2.0 mi North 6.9 mph - 0.02 in Rain Light Rain
4:52 AM 63.0 °F 61.0 °F 93% 30.11 in 2.0 mi North 11.5 mph - 0.03 in Rain Light Rain
5:22 AM 63.0 °F 61.0 °F 93% 30.11 in 0.5 mi North 11.5 mph - 0.00 in   Overcast
5:52 AM 63.0 °F 61.0 °F 93% 30.12 in 0.5 mi North 10.4 mph - 0.00 in   Overcast
6:52 AM 63.0 °F 61.0 °F 93% 30.13 in 0.5 mi North 11.5 mph - 0.00 in Fog Light Drizzle
7:52 AM 63.0 °F 61.0 °F 93% 30.13 in 0.5 mi North 9.2 mph - 0.00 in   Light Drizzle
8:52 AM 64.9 °F 63.0 °F 93% 30.14 in 0.5 mi NNE 5.8 mph - 0.01 in   Light Drizzle
9:18 AM 64.9 °F 63.0 °F 93% 30.14 in 1.8 mi NNE 9.2 mph - 0.00 in   Overcast
9:28 AM 66.0 °F 63.0 °F 90% 30.14 in 0.5 mi NE 8.1 mph - 0.00 in   Light Drizzle
9:52 AM 66.0 °F 63.0 °F 90% 30.14 in 0.5 mi NE 9.2 mph - 0.00 in   Light Drizzle
10:52 AM 66.0 °F 64.0 °F 93% 30.15 in 0.5 mi East 11.5 mph - 0.01 in Rain Light Rain
11:52 AM 66.0 °F 64.0 °F 93% 30.14 in 0.2 mi East 11.5 mph - 0.00 in Fog Light Drizzle
12:52 PM 66.0 °F 64.9 °F 96% 30.14 in 0.2 mi East 10.4 mph - 0.00 in Fog Light Drizzle
1:52 PM 66.9 °F 64.9 °F 93% 30.12 in 0.2 mi East 10.4 mph - 0.00 in Fog Fog
2:39 PM 66.9 °F 64.9 °F 93% 30.12 in 0.5 mi ESE 9.2 mph - N/A   Overcast
2:52 PM 66.9 °F 64.9 °F 93% 30.12 in 0.5 mi East 11.5 mph - N/A   Overcast
3:15 PM 66.9 °F 64.9 °F 93% 30.11 in 1.5 mi East 12.7 mph - N/A   Overcast
3:52 PM 66.9 °F 64.0 °F 90% 30.09 in 2.5 mi East 12.7 mph - N/A   Overcast
4:52 PM 68.0 °F 64.0 °F 87% 30.08 in 2.5 mi East 11.5 mph - N/A   Overcast
5:31 PM 66.9 °F 63.0 °F 87% 30.07 in 2.5 mi East 12.7 mph - N/A   Overcast
5:34 PM 66.9 °F 63.0 °F 87% 30.07 in 10.0 mi East 12.7 mph - N/A   Overcast
5:52 PM 66.9 °F 63.0 °F 87% 30.07 in 10.0 mi ENE 11.5 mph - N/A   Overcast
6:32 PM 66.9 °F 63.0 °F 87% 30.07 in 10.0 mi East 9.2 mph - N/A   Overcast
6:52 PM 66.9 °F 63.0 °F 87% 30.06 in 10.0 mi East 11.5 mph - N/A   Mostly Cloudy
7:11 PM 66.0 °F 63.0 °F 90% 30.06 in 10.0 mi East 9.2 mph - N/A   Mostly Cloudy
7:52 PM 66.9 °F 64.0 °F 90% 30.05 in 10.0 mi East 9.2 mph - N/A   Mostly Cloudy
8:45 PM 68.0 °F 64.0 °F 87% 30.05 in 10.0 mi ESE 13.8 mph - N/A   Overcast
8:52 PM 68.0 °F 64.0 °F 87% 30.05 in 10.0 mi ESE 12.7 mph - N/A   Overcast
9:52 PM 68.0 °F 64.9 °F 90% 30.03 in 8.0 mi SE 17.3 mph 24.2 mph 0.00 in Rain Light Rain
10:24 PM 68.0 °F 64.9 °F 90% 30.01 in 9.0 mi SE 17.3 mph 26.5 mph 0.00 in Rain , Thunderstorm Light Thunderstorms and Rain
10:52 PM 68.0 °F 64.9 °F 90% 30.00 in 10.0 mi SSE 13.8 mph 23.0 mph 0.00 in   Overcast
11:17 PM 69.1 °F 66.0 °F 90% 29.99 in 10.0 mi SSE 15.0 mph - N/A Thunderstorm Thunderstorm
11:52 PM 70.0 °F 66.9 °F 90% 30.00 in 10.0 mi WNW 11.5 mph - N/A Thunderstorm Thunderstorm